STERKH

Satellite information

Favourite Embed

Satellite Type and Status

PAYLOADIN ORBIT

Key statistics

Satellite STERKH at a glance.

Uptime

5992

Days in orbit

Revolutions

≈ 13.9

Per day

Orbit

LEO

Low Earth Orbit

Inclination

83.0

Latest

Satellite identification and parameters

Extended collection of information and parameters for STERKH.

Object identification

Identified? True

Debris? False

Object name: STERKH

International designator: 2009-039B

Object number (NORAD): 35636

Object ID (CCSDS): 35636

Country: COMMONWEALTH OF INDEPENDENT STATES (CIS)

Current information (Y/N): Y

RCS size: MEDIUM

Orbital parameters

Period: 103.576 minutes

Inclination: 82.9556 deg

SMA: 7305.754 km

Apoapsis: 942.902 km

Periapsis: 912.336 km

RAAN: 166.5694 deg

Eccentricy: 0.00209188

Argument of periapsis: 61.1454 deg

Mean anomaly: 299.1806 deg

Mean motion: 13.90289328 rev/day

Mean motion (dot): 0.00000157 rev/day2

B* drag term: 0.00011350728 1/REarth

Two-line elements (TLE)

Creation date: Dec. 14, 2025, 11:30 a.m.

Reference frame: TEME

Reference center: EARTH

Epoch: Dec. 13, 2025, 11:36 p.m. UTC

TLE line 0: 0 STERKH

TLE line 1: 1 35636U 09039B 25347.98361896 .00000157 00000-0 11351-3 0 9992

TLE line 2: 2 35636 82.9556 166.5694 0020919 61.1454 299.1806 13.90289328831326

Live tracking on map

Real-time ground track for satellite STERKH.

In-orbit conjunctions

There are no conjunctions computed for STERKH, at the moment. Check back to stay up to date, as we update our databases every day.

Go to all conjunctions

Associated space launch

Navigation satellite providing location information for the Tsiklon-B navigation system

STERKH was lifted into orbit during the mission ‘Kosmos-3M | Parus 98’, on board a Kosmos-3M space rocket.

The launch took place on July 21, 2009, 3:57 a.m. from 132/1 (132L).

For more information about the launch, click the button.

Launch to space Kosmos-3M | Parus 98
Kosmos-3M | Parus 98

Agency: N/A

Status: Launch Successful

Launch date: July 21, 2009, 3:57 a.m. UTC

Rocket: Kosmos-3M

Launch pad: 132/1 (132L)

Location: Plesetsk Cosmodrome, Russian Federation

...

Latest news about this satellite

There are no fresh news available about this satellite. Check back as we update our databases every day.


Newsletter sign-up

Weekly statistics, charts and insights to help you stay on top of the space industry.